Temperature
6 6 6 6 5 5 5 4 4 4 4 5 5 5 4 4 4 4 4 4 4 4 4 4 3 3 3 3 3 3 3 2 2 2 2 2 2 2
6 5 5 5 5 5 4 4 4 3 3 4 4 4 4 4 4 4 4 3 3 3 3 3 3 3 3 2 2 2 2 2 2 2 2 2 2 2
5 5 5 5 5 4 4 4 4 3 3 3 3 3 3 3 3 3 3 3 3 3 3 3 3 2 2 2 2 2 2 2 2 2 2 2 2 2
5 4 4 4 4 4 4 4 3 3 3 3 3 3 3 3 3 3 3 3 2 2 2 2 2 2 2 2 2 1 1 1 1 1 1 1 1 1
4 4 4 4 4 4 3 3 3 3 2 2 2 2 2 2 2 2 2 2 2 2 2 2 2 2 2 1 1 1 1 1 1 1 1 1 1 1
3 3 3 3 3 3 3 3 3 3 2 2 2 2 2 2 2 2 2 2 2 2 2 1 1 1 1 1 1 1 1 0 0 0 0 0 0 1
3 3 3 3 3 2 2 2 2 2 2 2 2 1 1 1 1 1 1 1 1 1 1 1 1 1 1 1 0 0 0 0 -0 0 -0 0 0 0
3 3 2 2 2 2 2 2 2 2 1 1 1 1 1 1 1 1 0 0 0 1 0 1 1 0 1 0 0 -0 -0 -0 -0 -0 -0 -0 -0 -0
2 2 2 2 2 1 1 1 1 1 1 1 1 1 0 0 0 0 -0 -0 -0 -0 -0 0 0 0 0 -0 -0 -0 -1 -1 -1 -1 -1 -1 -1 -1
2 1 1 1 1 1 1 1 1 1 1 1 0 0 0 -0 -0 -0 -0 -0 -0 -1 -1 -1 -0 -0 -0 -0 -1 -1 -1 -1 -1 -1 -1 -1 -1 -1
1 1 1 1 0 1 1 1 1 1 1 1 0 0 -0 -0 -0 -0 -0 -1 -1 -1 -1 -2 -1 -1 -1 -1 -1 -1 -1 -1 -1 -1 -1 -1 -1 -1
0 0 0 0 0 0 0 0 0 0 0 0 0 0 -0 -0 -0 -1 -1 -1 -2 -2 -2 -2 -2 -2 -2 -1 -1 -1 -1 -1 -2 -2 -2 -2 -2 -2
-0 -0 -0 -0 -0 -0 -0 -0 -1 -0 -0 -0 -0 -0 -0 -1 -1 -1 -1 -2 -2 -2 -2 -2 -2 -3 -3 -3 -2 -1 -2 -2 -2 -2 -2 -2 -2 -2
-1 -1 -1 -0 -0 -0 -1 -1 -1 -1 -1 -1 -1 -1 -1 -1 -1 -1 -1 -2 -2 -2 -2 -3 -3 -3 -3 -3 -3 -2 -2 -2 -2 -2 -2 -2 -2 -2
-1 -1 -1 -1 -1 -1 -1 -1 -1 -1 -1 -1 -1 -1 -1 -1 -2 -2 -2 -2 -2 -2 -2 -3 -3 -3 -3 -3 -3 -3 -2 -2 -2 -3 -3 -2 -2 -2
-1 -1 -1 -1 -1 -1 -1 -1 -1 -1 -1 -2 -2 -2 -2 -2 -2 -2 -2 -2 -2 -2 -2 -2 -3 -3 -3 -3 -3 -3 -3 -3 -3 -3 -3 -3 -3 -3
-2 -2 -2 -1 -1 -1 -1 -2 -2 -2 -2 -2 -2 -2 -2 -2 -2 -2 -2 -2 -3 -3 -2 -2 -2 -3 -3 -3 -3 -3 -3 -3 -3 -3 -3 -3 -3 -3
-2 -2 -2 -2 -2 -2 -2 -2 -2 -2 -2 -2 -2 -2 -2 -2 -3 -3 -3 -3 -3 -3 -3 -3 -3 -2 -2 -3 -3 -3 -3 -3 -3 -4 -4 -4 -3 -3
-3 -3 -3 -3 -3 -3 -2 -2 -2 -3 -3 -3 -3 -3 -3 -3 -3 -3 -3 -3 -3 -3 -3 -3 -3 -3 -4 -4 -3 -3 -4 -4 -4 -4 -4 -4 -4 -4
-3 -3 -3 -3 -3 -3 -3 -3 -3 -3 -3 -3 -3 -3 -3 -3 -3 -3 -3 -4 -4 -3 -3 -3 -3 -4 -4 -4 -4 -3 -4 -4 -4 -4 -4 -4 -4 -4
-4 -4 -4 -4 -4 -3 -4 -3 -3 -3 -3 -3 -3 -3 -3 -3 -3 -3 -4 -4 -4 -4 -4 -3 -3 -4 -4 -4 -4 -4 -4 -4 -4 -4 -4 -4 -4 -4
-4 -4 -4 -4 -4 -4 -4 -4 -4 -4 -4 -4 -4 -4 -4 -4 -3 -4 -4 -4 -4 -4 -4 -4 -3 -3 -4 -4 -4 -4 -4 -4 -4 -4 -4 -4 -5 -5
-5 -4 -4 -4 -4 -4 -4 -4 -4 -4 -4 -4 -4 -4 -4 -4 -4 -4 -4 -4 -4 -4 -4 -4 -4 -4 -4 -4 -4 -4 -4 -4 -4 -4 -4 -4 -4 -4
Wind_Speed
3 3 3 2 2 2 2 2 2 3 4 3 2 3 6 7 9 10 10 12 14 14 14 14 15 15 15 15 16 16 16 17 18 18 18 19 19 19
2 3 3 2 2 2 2 2 2 3 4 3 3 4 6 7 10 10 10 12 13 14 14 14 15 15 15 15 15 16 16 17 17 18 18 18 19 19
3 3 3 2 2 2 2 2 2 3 5 4 3 4 4 5 7 8 9 9 10 13 14 15 15 15 15 15 16 16 16 17 17 17 18 18 18 18
3 3 3 2 2 2 2 3 3 3 4 5 5 4 4 5 5 6 7 8 9 12 14 15 15 14 15 15 16 16 16 16 16 16 17 17 17 17
3 3 3 3 3 2 2 3 2 2 2 3 4 4 4 4 5 6 6 6 8 10 12 13 13 14 15 16 16 16 16 16 16 16 16 16 17 17
3 3 3 3 4 3 3 3 2 2 2 2 3 4 4 4 4 5 6 5 6 7 9 10 12 14 15 16 16 16 16 16 16 15 15 16 16 16
1 1 2 1 2 2 1 2 1 1 1 2 3 3 4 5 5 4 6 7 6 4 5 6 8 8 10 13 14 15 16 16 17 17 16 16 16 16
1 0 0 1 1 2 2 1 1 1 1 2 3 4 4 4 4 4 5 6 5 4 5 7 5 6 7 8 13 15 16 17 17 17 17 17 17 16
1 1 1 0 1 1 1 2 2 2 1 1 2 3 4 4 4 5 5 5 5 5 5 6 5 5 7 10 14 15 16 17 18 18 18 17 18 18
1 1 1 1 1 1 0 1 1 1 2 1 2 3 3 3 3 4 5 5 5 4 3 4 5 5 7 9 12 14 16 17 18 18 19 19 19 18
1 0 1 2 1 2 1 0 2 2 3 4 4 4 5 5 5 3 4 4 5 4 2 2 4 6 6 5 8 13 16 17 18 18 19 19 19 17
1 1 1 1 1 1 1 1 1 2 2 3 4 5 5 5 5 3 2 3 4 4 3 3 4 5 4 4 5 9 11 14 17 18 18 19 19 13
0 1 1 2 1 1 1 1 2 1 1 1 2 3 3 4 4 5 3 2 3 4 4 3 4 4 3 5 5 6 7 8 11 12 15 18 18 14
1 1 1 2 1 1 1 2 2 2 1 1 2 3 3 4 4 6 6 5 4 5 6 5 3 4 5 5 5 6 7 8 8 8 10 14 15 16
0 1 1 1 2 1 2 3 2 1 1 2 2 3 3 3 4 5 5 6 5 5 5 5 4 4 4 4 5 6 6 6 6 6 8 9 8 9
1 1 2 3 3 2 2 2 2 1 1 1 2 2 3 3 3 4 4 5 5 5 6 6 5 4 4 5 5 6 6 5 6 7 7 7 8 9
1 1 2 2 2 2 2 2 2 2 2 2 2 2 3 4 4 4 4 4 4 5 6 6 6 5 4 4 4 5 5 5 6 7 6 7 7 8
2 1 1 1 1 1 2 2 2 2 2 2 2 2 3 4 4 4 4 4 4 5 5 5 6 5 4 2 2 3 4 5 6 7 6 5 6 7
2 1 0 0 1 1 1 1 2 2 2 2 2 2 3 3 4 4 4 4 4 5 5 5 5 4 5 6 4 4 4 5 6 6 6 5 6 7
1 0 0 0 1 1 1 1 2 2 2 2 2 2 3 3 3 4 4 4 5 5 5 5 4 4 4 4 4 4 7 5 5 6 6 5 5 7
0 0 0 1 1 1 1 1 1 2 2 2 2 2 2 3 3 4 4 5 5 4 5 5 6 8 4 2 3 4 5 7 6 5 6 5 5 5
0 0 1 1 1 1 1 1 1 2 2 2 2 2 3 3 3 4 4 4 4 5 5 5 6 5 3 3 4 5 6 7 8 9 8 5 3 4
1 1 1 1 1 1 1 1 2 2 2 2 2 3 3 3 3 3 4 4 4 5 5 5 5 4 4 3 4 4 6 7 6 6 6 10 8 7
Wind_Direction
208 206 217 230 223 229 224 218 232 274 283 281 299 306 315 317 320 322 317 321 324 322 322 322 322 321 321 320 320 322 323 323 321 320 320 320 320 320
212 205 219 226 229 230 227 225 221 234 261 285 285 305 316 319 325 326 319 327 331 330 326 324 324 323 323 323 324 325 325 324 322 321 321 321 322 322
213 207 223 219 224 234 236 234 231 227 255 285 294 304 304 315 323 325 322 322 324 330 332 331 328 326 327 328 327 326 326 325 324 322 322 322 323 323
214 214 223 218 225 233 232 238 241 236 246 279 301 306 304 310 319 324 327 324 318 324 331 333 334 334 333 332 331 330 328 327 326 324 324 324 325 324
213 217 227 214 230 238 230 243 253 261 252 272 297 311 315 325 328 328 327 324 324 325 329 332 335 338 339 339 337 335 333 330 328 326 327 328 326 325
217 224 231 225 230 233 230 235 244 253 270 287 304 317 319 322 330 332 331 330 324 326 328 330 332 334 336 338 340 340 339 338 335 333 332 330 328 326
224 240 251 262 262 252 253 244 242 266 292 306 312 320 326 332 330 326 324 325 317 321 327 324 327 329 333 336 341 342 342 343 343 341 337 334 332 330
182 171 325 303 309 319 329 347 18 299 284 293 301 310 312 314 320 326 326 331 323 331 332 317 324 322 328 329 337 342 344 346 346 346 346 343 339 336
178 185 221 329 352 281 315 5 10 359 333 250 276 292 304 309 318 321 317 313 302 308 321 307 317 316 324 329 337 343 346 347 348 349 347 346 346 341
197 190 207 231 262 319 81 21 343 328 318 307 264 283 296 299 294 296 296 307 304 303 322 304 313 315 318 324 337 344 347 350 350 350 349 349 347 344
285 202 222 235 282 30 88 18 338 336 346 344 339 337 336 341 348 351 340 336 325 315 333 318 314 318 310 309 335 345 348 350 350 349 349 349 349 347
328 288 274 280 307 13 120 198 278 302 332 349 351 350 355 355 360 3 324 321 320 311 333 337 317 331 324 310 325 340 343 343 346 347 349 351 352 352
262 300 306 305 309 340 357 276 284 324 332 342 344 350 355 357 353 348 335 299 298 290 306 330 312 320 309 309 314 323 337 338 341 344 348 349 352 356
236 269 291 324 329 360 -0 351 13 43 54 20 6 357 351 345 337 335 332 326 303 285 292 304 297 307 314 312 310 317 325 333 340 341 346 348 352 354
237 291 330 22 45 48 32 32 47 65 48 18 349 334 331 326 334 339 343 345 344 334 319 310 299 299 299 297 304 312 319 325 339 343 344 346 345 346
40 55 56 64 52 44 49 46 36 38 34 351 331 330 333 338 343 343 340 344 347 339 338 336 324 305 301 295 297 309 318 322 330 334 333 336 346 352
84 66 60 47 35 29 32 35 29 30 24 9 356 344 343 344 344 344 343 346 344 333 333 339 342 326 287 277 302 312 319 319 322 328 332 338 343 352
99 85 68 52 30 9 6 9 9 8 359 350 347 340 337 339 340 341 345 344 336 328 328 330 340 342 339 328 306 310 324 321 326 331 330 334 343 348
99 94 56 29 354 346 348 350 340 339 337 335 332 332 335 337 340 340 343 341 335 329 326 327 337 348 349 341 333 353 336 328 332 336 338 335 331 334
106 145 249 282 293 314 328 333 334 339 339 329 325 329 333 335 336 335 333 332 330 329 329 332 340 341 331 314 311 321 337 330 330 336 335 325 319 327
111 302 273 275 289 303 312 317 319 318 326 325 320 322 323 326 327 326 324 329 334 328 327 327 325 329 320 323 329 331 335 349 349 334 329 328 332 342
264 272 295 292 292 290 296 308 318 318 320 316 315 316 317 313 316 320 322 322 322 322 322 322 327 338 350 356 345 332 336 343 354 359 359 356 337 346
301 292 291 294 298 301 299 301 305 304 302 303 309 312 313 316 318 319 318 320 322 327 333 335 340 347 348 347 344 339 344 347 350 357 360 4 5 358
Height
1495 1495 1495 1495 1495 1495 1494 1493 1493 1489 1487 1486 1485 1484 1482 1480 1478 1476 1474 1472 1469 1467 1464 1462 1459 1456 1453 1450 1447 1444 1440 1437 1433 1430 1427 1424 1420 1417
1491 1491 1491 1491 1491 1491 1490 1490 1489 1488 1485 1483 1482 1481 1479 1477 1475 1472 1470 1468 1465 1463 1460 1457 1455 1452 1449 1446 1442 1439 1436 1432 1429 1426 1422 1419 1416 1413
1487 1487 1487 1487 1487 1487 1486 1486 1485 1484 1482 1480 1479 1478 1475 1473 1471 1469 1467 1464 1461 1459 1456 1454 1451 1448 1445 1441 1438 1435 1431 1428 1424 1421 1418 1415 1412 1408
1483 1483 1483 1483 1483 1483 1483 1482 1481 1480 1479 1477 1475 1474 1472 1470 1468 1465 1463 1460 1458 1455 1453 1450 1447 1444 1441 1437 1434 1430 1427 1424 1420 1417 1414 1410 1407 1404
1480 1480 1480 1480 1479 1479 1479 1478 1477 1477 1476 1474 1472 1471 1469 1467 1465 1462 1460 1457 1455 1452 1450 1447 1444 1440 1437 1434 1430 1427 1423 1420 1416 1413 1409 1406 1403 1400
1476 1476 1476 1476 1476 1476 1475 1475 1474 1473 1472 1471 1469 1467 1466 1464 1462 1459 1456 1454 1452 1449 1447 1444 1441 1438 1434 1430 1427 1423 1419 1416 1413 1409 1406 1402 1399 1396
1472 1473 1473 1473 1473 1473 1473 1472 1471 1470 1468 1467 1466 1464 1462 1460 1458 1456 1453 1450 1448 1446 1443 1441 1438 1434 1431 1427 1424 1420 1416 1413 1409 1406 1402 1399 1395 1392
1469 1469 1469 1470 1470 1470 1469 1469 1468 1467 1465 1464 1463 1461 1459 1458 1456 1454 1451 1448 1444 1443 1440 1437 1435 1431 1428 1425 1421 1417 1414 1410 1406 1403 1399 1395 1392 1388
1466 1466 1466 1466 1466 1466 1466 1466 1465 1464 1463 1463 1461 1459 1457 1455 1453 1451 1449 1446 1443 1441 1438 1434 1432 1428 1425 1422 1418 1415 1411 1407 1404 1400 1397 1392 1388 1385
1462 1462 1463 1463 1463 1463 1463 1462 1461 1461 1460 1459 1459 1457 1456 1454 1452 1450 1448 1444 1442 1439 1437 1432 1428 1425 1422 1419 1416 1412 1409 1405 1401 1398 1394 1390 1386 1382
1459 1459 1460 1460 1460 1460 1459 1459 1458 1458 1458 1457 1456 1455 1453 1451 1450 1447 1445 1442 1438 1436 1434 1431 1426 1422 1419 1416 1414 1410 1407 1403 1399 1395 1392 1388 1384 1380
1456 1457 1457 1457 1457 1457 1456 1455 1455 1455 1454 1453 1453 1452 1451 1449 1447 1445 1443 1440 1437 1434 1432 1429 1425 1422 1417 1414 1412 1409 1405 1401 1397 1394 1390 1386 1383 1378
1453 1454 1454 1455 1454 1454 1454 1453 1453 1453 1452 1451 1450 1449 1448 1446 1444 1443 1441 1439 1436 1434 1432 1428 1425 1421 1419 1413 1409 1407 1403 1399 1396 1392 1389 1385 1381 1377
1451 1451 1451 1452 1452 1452 1451 1451 1451 1450 1450 1449 1448 1446 1445 1444 1442 1441 1439 1437 1435 1433 1430 1428 1424 1421 1418 1413 1409 1406 1403 1399 1395 1392 1388 1384 1381 1377
1449 1449 1449 1449 1449 1449 1449 1449 1449 1448 1447 1447 1445 1444 1443 1442 1440 1438 1437 1435 1433 1431 1429 1426 1424 1421 1418 1414 1410 1405 1402 1398 1395 1392 1388 1384 1380 1376
1447 1447 1447 1447 1447 1447 1447 1447 1447 1446 1446 1445 1443 1442 1441 1440 1438 1436 1434 1432 1430 1428 1427 1425 1422 1419 1416 1413 1410 1406 1403 1399 1396 1392 1388 1384 1381 1377
1445 1445 1445 1445 1445 1445 1445 1445 1445 1444 1444 1443 1442 1441 1439 1438 1436 1435 1433 1431 1428 1426 1424 1422 1420 1418 1415 1413 1409 1406 1403 1399 1396 1393 1388 1384 1381 1378
1443 1443 1443 1443 1443 1443 1443 1443 1443 1443 1442 1441 1440 1439 1438 1436 1435 1433 1432 1430 1427 1425 1423 1420 1418 1415 1413 1411 1409 1405 1402 1399 1396 1393 1389 1385 1382 1379
1442 1441 1441 1441 1441 1442 1441 1441 1441 1441 1441 1440 1439 1438 1437 1435 1434 1432 1430 1429 1427 1425 1422 1420 1418 1415 1412 1409 1408 1406 1402 1399 1396 1393 1389 1386 1383 1380
1440 1440 1440 1440 1440 1440 1440 1440 1440 1440 1439 1439 1438 1437 1436 1434 1433 1431 1429 1428 1426 1423 1421 1420 1418 1415 1413 1411 1407 1405 1403 1399 1396 1393 1390 1387 1384 1382
1438 1439 1439 1439 1439 1439 1439 1439 1439 1438 1438 1437 1437 1436 1435 1434 1432 1430 1429 1427 1425 1423 1421 1419 1418 1416 1414 1411 1408 1405 1403 1400 1397 1394 1391 1388 1385 1382
1437 1437 1437 1437 1438 1438 1438 1438 1438 1437 1437 1436 1436 1435 1433 1432 1431 1429 1428 1426 1424 1423 1421 1419 1418 1416 1414 1411 1408 1405 1402 1400 1398 1396 1393 1390 1388 1384
1435 1436 1436 1436 1437 1437 1437 1436 1436 1436 1436 1435 1434 1433 1432 1431 1430 1429 1427 1426 1424 1422 1421 1419 1418 1416 1414 1412 1409 1406 1403 1401 1398 1396 1394 1392 1390 1388